Kralendijk, Netherlands

10:55 PM AST on May 23, 2018 (GMT -0400)
Kralendijk

Weather History for 78990 - July, 2013

Change the Weather History Date:

Friday, July 19, 2013

  Actual Average Record
Temperature  
Mean Temperature 84 °F -  
Max Temperature 87 °F 88 °F - ()
Min Temperature 80 °F 81 °F - ()
Cooling Degree Days 18    
Growing Degree Days 34 (Base 50)    
Moisture  
Dew Point 77 °F    
Average Humidity 80    
Maximum Humidity 89    
Minimum Humidity 70    
Precipitation  
Precipitation 0.12 in - - ()
Sea Level Pressure  
Sea Level Pressure 29.93 in    
Wind  
Wind Speed 16 mph ()    
Max Wind Speed 23 mph    
Max Gust Speed -    
Visibility 7.4 miles    
Events Rain    
T = Trace of Precipitation, MM = Missing Value Source: Averaged Metar Reports

Daily Weather History Graph

Daily Weather History Graph

Search for Another Location

Airport or City:

Astronomy

Jul. 19, 2013 Rise Set
Actual Time 6:17 AM AST 7:01 PM AST
Civil Twilight 5:54 AM AST 7:24 PM AST
Nautical Twilight 5:27 AM AST 7:51 PM AST
Astronomical Twilight 5:00 AM AST 8:18 PM AST
Moon 4:01 PM AST (7/19) 2:52 AM AST (7/19)
Length of Visible Light 13h 30m
Length of Day
12h 44m
Waxing Gibbous, 86% of the Moon is Illuminated
Jul 19
Waxing Gibbous
Jul 22
Full
Jul 29
Last Quarter
Aug 6
New
Aug 14
First Quarter

Hourly Weather History & Observations

Time (AST) Temp. Heat Index Dew Point Humidity Pressure Visibility Wind Dir Wind Speed Gust Speed Precip Events Conditions
1:55 AM 82.4 °F 90.9 °F 77.0 °F 84% 29.92 in - East 18.4 mph - N/A   Unknown
3:00 AM - - - N/A% - - North - - N/A   Unknown
4:00 AM - - - N/A% - - North - - N/A   Unknown
5:00 AM - - - N/A% - - North - - N/A   Unknown
6:00 AM 80.6 °F 87.1 °F 77.0 °F 89% - - East 16.1 mph - N/A   Unknown
7:00 AM 82.4 °F 89.5 °F 75.2 °F 79% 29.92 in - East 16.1 mph - N/A   Unknown
8:00 AM 82.4 °F 89.5 °F 75.2 °F 79% 29.95 in 6.2 mi East 13.8 mph - N/A   Scattered Clouds
9:00 AM 84.2 °F 94.1 °F 77.0 °F 79% 29.95 in 6.2 mi East 18.4 mph - N/A   Scattered Clouds
10:00 AM 86.0 °F 96.9 °F 77.0 °F 74% 29.95 in 6.2 mi East 20.7 mph - N/A   Scattered Clouds
10:55 AM 84.2 °F 94.1 °F 77.0 °F 79% 29.98 in 6.2 mi East 21.9 mph - N/A   Scattered Clouds
12:00 PM 86.0 °F 95.1 °F 75.2 °F 70% 29.98 in 6.2 mi East 20.7 mph - N/A   Scattered Clouds
2:00 PM 84 °F - 77 °F 73% 29.95 in 12 mi East 18.4 mph - - Rain Light Rain Showers
2:00 PM 84.2 °F 94.1 °F 77.0 °F 79% 29.95 in 6.2 mi East 18.4 mph - N/A   Scattered Clouds
3:00 PM 84.2 °F 96.1 °F 78.8 °F 84% 29.92 in 6.2 mi ENE 16.1 mph - N/A   Scattered Clouds
4:00 PM 84.2 °F 94.1 °F 77.0 °F 79% 29.89 in 6.2 mi ENE 20.7 mph - N/A   Scattered Clouds
5:00 PM 84 °F - 78 °F 77% 29.90 in 12 mi ENE 19.6 mph - -   Partly Cloudy
5:00 PM 84.2 °F 96.1 °F 78.8 °F 84% 29.89 in 6.2 mi ENE 19.6 mph - N/A   Scattered Clouds
6:00 PM 84.2 °F 94.1 °F 77.0 °F 79% 29.89 in 6.2 mi ENE 21.9 mph - N/A   Partly Cloudy
6:55 PM 82.4 °F 90.9 °F 77.0 °F 84% 29.89 in - ENE 21.9 mph - N/A   Unknown
7:00 PM 82.4 °F 90.9 °F 77.0 °F 84% 29.89 in - ENE 21.9 mph - N/A   Unknown
8:00 PM 82 °F - 76 °F 78% 29.94 in 12 mi ENE 20.7 mph - -   Partly Cloudy
8:00 PM 82.4 °F 90.9 °F 77.0 °F 84% 29.92 in 6.2 mi ENE 20.7 mph - N/A   Partly Cloudy
9:00 PM 82.4 °F 90.9 °F 77.0 °F 84% 29.92 in - ENE 23.0 mph - N/A   Unknown